Location: Unspecified
(0.0000°N, 0.0000°E)
Time: 18:54:04
(UTC+00:00)

Vanguard 1 Rocket - Pass Details

Date: 26 November 2019
Orbit: 650 x 4226 km, 34.3° (Epoch: 05 December)

Event Time Altitude Azimuth Distance (km) Brightness Sun altitude
Rises 20:40:07 0° 233° (SW) 8,214 13.1 -39.7°
Reaches altitude 10° 20:46:20 10° 232° (SW) 6,861 12.5 -41.1°
Enters shadow 21:06:15 83° 229° (SW) 2,443 9.2 -45.4°
Maximum altitude 21:07:02 90° 141° (SE) 2,367 - -45.6°
Drops below altitude 10° 21:17:12 10° 53° (NE) 3,687 - -47.8°
Sets 21:19:30 0° 53° (NE) 4,364 - -48.2°
